Cheyenne Regional Jerry Olson Field Cheyenne US
ICAO: KCYS
IATA: CYS
Category: Medium
Scheduled Services: Yes

Elevation: 6159 ft
TransAlt. 18000 ft.

Airport Communications:
APP/DEP:124.55
ATIS:134.425
CTAF:118.7
GND:121.9
ARNG OPS:126.2
ANG OPS/COMD POST:22.552
CASPER RDO:122.3
TWR:118.7
UNICOM:122.95

KCYS Zoom In..

If you have problems with the map follow the link
https://www.worldairports.se/pages/airport.php?
ICAO=KCYS

Runways:

(A) RW 09 length 9270 ft width 150 ft
---- / hdg 85

(B) RW 13 length 6690 ft width 150 ft
---- / hdg 125

(C) RW 27 length 9270 ft width 150 ft
ILS 110.10 / hdg 265

(D) RW 31 length 6690 ft width 150 ft
---- / hdg 305

Location; KCYS
Day. 17 / Time. 01.53 Zulu
* Altimeter: 30.03
* Temperature: 03° c. 37.4°f.
* Wind from: 020° Speed 12 kn.
Dewpoint: -03° c.
Visibility: 10 Statute Miles.
Clouds: Overcast 7500 ft.

KCYS 170153Z 02012KT 10SM OVC075 03/M03 A3003 RMK AO2 SLP160 T00331028


Wind From 020°
Speed 12 kn.

 
 
jpsmedia.com for Web Design worldairports.se 2018   terms of use